This is the latest recevied weather packets stored in our database for station/object WD9EKA. If no packets are shown the sender has not sent any weather packets the latest 10 day(s).
| Time | Temp. | Humidity | Pressure | Rain* | Wind** | Luminosity | Snow |
|---|---|---|---|---|---|---|---|
| 1787439303 | 24.44° C | 74% | 1009.5 hPa | 0 mm | - | - | - |
| 1787438983 | 25° C | 70% | 1009.5 hPa | 0 mm | - | - | - |
| 1787438663 | 25° C | 70% | 1009.6 hPa | 0 mm | - | - | - |
| 1787438344 | 25.56° C | 68% | 1009.6 hPa | 0 mm | - | - | - |
| 1787438023 | 26.67° C | 65% | 1009.4 hPa | 0 mm | - | - | - |
| 1787437703 | 27.78° C | 63% | 1009.4 hPa | 0 mm | - | - | - |
| 1787437384 | 27.78° C | 63% | 1009.7 hPa | 0 mm | - | - | - |
| 1787437063 | 26.67° C | 65% | 1009.6 hPa | 0 mm | - | - | - |
| 1787436743 | 27.22° C | 65% | 1009.6 hPa | 0 mm | - | - | - |
| 1787436424 | 26.67° C | 65% | 1009.6 hPa | 0 mm | - | - | - |
| 1787436103 | 26.67° C | 64% | 1009.4 hPa | 0 mm | - | - | - |
| 1787435783 | 27.22° C | 65% | 1009.5 hPa | 0 mm | - | - | - |
| 1787435463 | 27.22° C | 63% | 1009.8 hPa | 0 mm | - | - | - |
| 1787435143 | 26.67° C | 63% | 1009.6 hPa | 0 mm | - | - | - |
| 1787434772 | 26.67° C | 63% | 1009.9 hPa | 0 mm | - | - | - |
| 1787434412 | 26.67° C | 64% | 1009.7 hPa | 0 mm | - | - | - |
| 1787434052 | 26.67° C | 64% | 1009.9 hPa | 0 mm | - | - | - |
| 1787433693 | 27.22° C | 66% | 1010 hPa | 0 mm | - | - | - |
| 1787433333 | 27.22° C | 64% | 1009.9 hPa | 0 mm | - | - | - |
| 1787432972 | 27.22° C | 62% | 1010 hPa | 0 mm | - | - | - |
| 1787432613 | 27.22° C | 63% | 1010.1 hPa | 0 mm | - | - | - |
| 1787432253 | 27.22° C | 64% | 1009.7 hPa | 0 mm | - | - | - |
| 1787431892 | 26.67° C | 64% | 1009.9 hPa | 0 mm | - | - | - |
| 1787431533 | 26.67° C | 64% | 1009.9 hPa | 0 mm | - | - | - |
| 1787431172 | 27.22° C | 63% | 1009.8 hPa | 0 mm | - | - | - |
* Rain latest hour (hover to see other rain measurements)
** Current wind speed in m/s (hover to see current wind gust speed)